This is the latest recevied weather packets stored in our database for station/object OE-11051. If no packets are shown the sender has not sent any weather packets the latest 10 day(s).
| Time | Temp. | Humidity | Pressure | Rain* | Wind** | Luminosity | Snow |
|---|---|---|---|---|---|---|---|
| 1787735107 | 18.89° C | 84% | 1018 hPa | 0 mm | - | 335 W/m² | - |
| 1787733680 | 17.78° C | 86% | 1018 hPa | 0 mm | - | 193 W/m² | - |
| 1787733307 | 17.78° C | 86% | 1017.8 hPa | 0 mm | - | 161 W/m² | - |
| 1787732706 | 17.78° C | 84% | 1018.2 hPa | 0 mm | - | 148 W/m² | - |
| 1787731880 | 17.78° C | 84% | 1018.2 hPa | 0 mm | - | 219 W/m² | - |
| 1787731507 | 17.78° C | 85% | 1018 hPa | 0 mm | - | 239 W/m² | - |
| 1787730907 | 17.22° C | 85% | 1018 hPa | 0 mm | - | 239 W/m² | - |
| 1787730080 | 17.22° C | 87% | 1017.8 hPa | 0 mm | - | 200 W/m² | - |
| 1787729707 | 17.22° C | 86% | 1017.8 hPa | 0 mm | - | 239 W/m² | - |
| 1787729107 | 16.67° C | 87% | 1017.9 hPa | 0 mm | - | 329 W/m² | - |
| 1787728279 | 16.11° C | 90% | 1017.9 hPa | 0 mm | - | 277 W/m² | - |
| 1787727907 | 15.56° C | 91% | 1017.9 hPa | 0 mm | - | 174 W/m² | - |
| 1787727307 | 15.56° C | 92% | 1017.9 hPa | 0 mm | - | 181 W/m² | - |
| 1787726718 | 15° C | 92% | 1018 hPa | 0 mm | - | 142 W/m² | - |
| 1787726107 | 15° C | 92% | 1017.9 hPa | 0 mm | - | 116 W/m² | - |
| 1787725507 | 15° C | 92% | 1017.9 hPa | 0 mm | - | 77 W/m² | - |
| 1787724679 | 15° C | 92% | 1017.8 hPa | 0 mm | - | 103 W/m² | - |
| 1787724307 | 15° C | 92% | 1017.9 hPa | 0 mm | - | 84 W/m² | - |
| 1787723706 | 15° C | 93% | 1017.8 hPa | 0 mm | - | 84 W/m² | - |
| 1787722879 | 15° C | 93% | 1017.6 hPa | 0 mm | - | 64 W/m² | - |
| 1787722507 | 14.44° C | 94% | 1017.7 hPa | 0 mm | - | 45 W/m² | - |
| 1787721907 | 14.44° C | 94% | 1017.6 hPa | 0 mm | - | 32 W/m² | - |
| 1787721079 | 14.44° C | 94% | 1017.7 hPa | 0 mm | - | 32 W/m² | - |
| 1787720707 | 14.44° C | 95% | 1017.6 hPa | 0 mm | - | 19 W/m² | - |
| 1787720107 | 14.44° C | 95% | 1017.6 hPa | 0 mm | - | 13 W/m² | - |
* Rain latest hour (hover to see other rain measurements)
** Current wind speed in m/s (hover to see current wind gust speed)